[[{"header":{"parameterUnit":"m.s-1","parameterCategory":1,"la1":30.2991,"la2":30.254,"lo1":-89.0895,"lo2":-89.0444,"dy":0.0017,"dx":0.0017,"nx":28,"ny":28,"refTime":"2025-11-11T03:00:00:Z","depth":0,"parameterNumber":2,"parameterNumberName":"U-component_of_WINDS"},"data":[0,0,0,0,0,0,0,0,0,0,0,0,0,0,0,0,0,0,0,0,0,0,0,0,0,0,0,0,0,0,0,0,0,0,0,0,0,0,0,0,0,0,0,0,0,0,0,0,0,0,0,0,0,0,0,0,0,0,4.4195,4.4195,0,4.426,4.4261,4.4261,4.4241,4.4239,4.4238,4.4236,4.4301,4.4304,4.4307,0,0,0,0,0,0,0,0,0,0,0,0,0,4.4051,4.4054,4.4195,4.4195,4.4196,4.426,4.4261,4.4262,4.4241,4.4239,4.4237,4.4236,4.43,4.4303,4.4307,0,0,0,0,0,0,0,0,0,0,0,0,0,4.4114,4.4054,4.4194,4.4194,4.4194,4.426,4.4261,4.4262,4.4241,4.4239,4.4237,4.4235,4.4298,4.4303,4.4307,4.4377,0,0,4.4321,4.4323,0,0,0,0,0,0,0,0,4.4111,4.412,4.4193,4.4194,4.4195,4.424,4.4234,4.43,4.4242,4.4223,4.4236,4.4234,4.4282,4.4288,4.4304,4.438,4.4382,4.4321,4.4324,4.4326,4.4327,0,0,0,0,0,0,0,4.4106,4.4117,4.422,4.4194,4.4195,4.419,4.4196,4.4246,4.4263,4.4225,4.4223,4.4232,4.4282,4.43,4.4306,4.4383,4.4321,4.4325,4.4328,4.433,4.4521,4.4523,0,0,0,0,0,0,4.4102,4.4113,4.4218,4.4222,4.4147,4.4194,4.4201,4.4227,4.4263,4.4266,4.4233,4.423,4.4293,4.4301,4.4308,4.4393,4.4326,4.433,4.4333,4.4518,4.4521,4.4524,0,0,0,0,0,0,4.4099,4.4111,4.4216,4.4167,4.418,4.4199,4.4228,4.423,4.4248,4.4269,4.4272,4.4249,4.4292,4.4302,4.436,4.4394,4.4332,4.4336,4.4516,4.4519,4.4523,4.4562,0,0,0,0,0,0,4.4095,4.411,4.4137,4.4168,4.4183,4.4267,4.423,4.4233,4.4256,4.4253,4.4284,4.4288,4.4291,4.4354,4.4365,4.4399,4.434,4.4513,4.4517,4.4522,4.4557,4.4566,4.4574,0,0,0,0,0,4.409,4.4144,4.4138,4.4151,4.4217,4.4269,4.4278,4.4281,4.4259,4.4286,4.43,4.4287,4.4389,4.436,4.4372,4.4409,4.4511,4.4516,4.4521,4.4554,4.4564,4.4573,0,0,0,0,0,0,4.4115,4.4148,4.4142,4.4209,4.4237,4.4266,4.4299,4.4292,4.4326,4.4322,4.4324,4.4331,4.4392,4.4406,4.4373,4.4479,4.4446,4.4455,4.4467,4.4477,4.4485,4.448,4.4344,0,0,0,0,0,4.4128,4.4169,4.4196,4.4252,4.4266,4.4281,4.4304,4.4305,4.4333,4.4344,4.4362,4.439,4.4429,4.4454,4.449,4.456,4.4567,4.4591,4.4599,4.4606,4.4612,4.4651,4.4663,4.4541,4.4541,4.4541,0,0,4.4156,4.4179,4.4204,4.4258,4.4279,4.4321,4.4291,4.4335,4.4366,4.4351,4.4408,4.4423,4.4454,4.4518,4.4548,4.4532,4.4648,4.4613,4.4618,4.4621,4.4658,4.467,4.468,4.4545,4.4544,4.4544,0,0,4.4228,4.425,4.43,4.4323,4.4357,4.4366,4.4379,4.441,4.4419,4.4477,4.4467,4.4503,4.4569,4.4593,4.4613,4.4697,4.4686,4.4709,4.4751,4.4789,4.4798,4.4807,4.4837,4.4848,4.4716,4.4716,4.4716,0,4.4258,4.4321,4.4326,4.4373,4.4397,4.4386,4.4437,4.4459,4.4502,4.4519,4.4502,4.4586,4.4606,4.4677,4.4698,4.4714,4.4728,4.4705,4.4797,4.4805,4.4813,4.4842,4.4854,4.4718,4.4718,4.4718,4.4718,0,4.4357,4.4401,4.4437,4.4481,4.4509,4.4557,4.457,4.4598,4.4597,4.4609,4.4668,4.4693,4.4735,4.4752,4.475,4.4823,4.4812,4.4796,4.4763,4.4827,4.4855,4.4866,4.4722,4.4721,4.472,4.472,0,0,4.4444,4.4493,4.4506,4.4527,4.4565,4.4598,4.4647,4.469,4.4714,4.4745,4.4786,4.4843,4.4829,4.4852,4.4854,4.4888,4.4954,4.4867,4.4868,4.4883,4.5036,4.5048,4.5061,4.4948,4.495,4.4951,4.5034,0,4.4519,4.4605,4.4612,4.469,4.4731,4.4723,4.4766,4.4794,4.4807,4.4843,4.4857,4.4898,4.4876,4.489,4.4923,4.4939,4.4985,4.4933,4.4985,4.4987,4.4977,4.5075,4.5087,4.5163,4.5044,4.5046,4.5047,0,4.4618,4.4654,4.4736,4.477,4.4788,4.4826,4.4867,4.4902,4.4934,4.4941,4.4969,4.4966,4.5016,4.4983,4.5053,4.5018,4.504,4.5051,4.5054,4.5058,4.502,4.5082,4.5188,4.5199,4.5064,4.5063,4.5062,0,4.4674,4.4743,4.4802,4.482,4.4861,4.4888,4.4906,4.4936,4.4962,4.4998,4.5015,4.5055,4.5077,4.5109,4.5118,4.5093,4.5187,4.5154,4.5194,4.5194,4.5214,4.5212,4.5324,4.5229,4.5229,4.5228,4.5228,0,4.4757,4.4808,4.4828,4.4863,4.492,4.4928,4.4984,4.5001,4.5028,4.5067,4.5063,4.5099,4.5109,4.5148,4.5155,4.5212,4.5222,4.5229,4.523,4.5229,4.5229,4.5243,4.5238,4.5231,4.5231,4.523,4.523,0,4.4829,4.4844,4.4908,4.4942,4.4952,4.4993,4.5022,4.5057,4.507,4.512,4.5132,4.5152,4.5198,4.521,4.5264,4.5269,4.5336,4.5333,4.5326,4.5326,4.5365,4.5361,4.549,4.5508,4.5401,4.5402,4.5403,0,4.4881,4.492,4.4959,4.4986,4.5006,4.5048,4.5075,4.5085,4.5114,4.5155,4.5184,4.523,4.5266,4.5339,4.5359,4.54,4.5398,4.544,4.5404,4.5402,4.5399,4.5396,4.54,4.5447,4.5448,4.5449,4.5449,0,4.4971,4.4977,4.5017,4.506,4.5093,4.5127,4.5159,4.5181,4.5196,4.5228,4.5275,4.5304,4.536,4.5405,4.5448,4.5467,4.5461,4.5461,4.5473,4.5471,4.5466,4.547,4.5344,4.5458,4.5457,4.5456,4.5456,4.5455,4.5034,4.5069,4.5103,4.5148,4.5174,4.5205,4.524,4.5259,4.5299,4.5346,4.535,4.5401,4.5434,4.5491,4.5512,4.5552,4.554,4.5556,4.556,4.5564,4.5568,4.546,4.556,4.556,4.556,4.556,4.5559,0,4.5125,4.5147,4.5188,4.5235,4.527,4.5264,4.53,4.533,4.5375,4.5407,4.5444,4.5499,4.5543,4.5567,4.5612,4.5639,4.5638,4.5651,4.5648,4.5653,4.5576,4.5562,4.5651,4.5651,4.5651,4.5651,4.5651,4.5651,4.5176,4.5235,4.5246,4.5318,4.534,4.5391,4.5412,4.5441,4.5467,4.5529,4.5566,4.5582,4.5611,4.5658,4.5699,4.5705,4.5721,4.5735,4.574,4.5668,4.5658,4.5649,4.5636,4.5739,4.5739,4.5813,4.5814,4.5814]},{"header":{"parameterUnit":"m.s-1","parameterCategory":1,"la1":30.2991,"la2":30.254,"lo1":-89.0895,"lo2":-89.0444,"dy":0.0017,"dx":0.0017,"nx":28,"ny":28,"refTime":"2025-11-11T03:00:00:Z","depth":0,"parameterNumber":3,"parameterNumberName":"V-component_of_WINDS"},"data":[0,0,0,0,0,0,0,0,0,0,0,0,0,0,0,0,0,0,0,0,0,0,0,0,0,0,0,0,0,0,0,0,0,0,0,0,0,0,0,0,0,0,0,0,0,0,0,0,0,0,0,0,0,0,0,0,0,0,-7.4567,-7.4569,0,-7.4701,-7.4702,-7.4704,-7.4664,-7.4661,-7.4658,-7.4656,-7.4788,-7.4794,-7.48,0,0,0,0,0,0,0,0,0,0,0,0,0,-7.4275,-7.428,-7.4567,-7.4569,-7.4571,-7.4701,-7.4702,-7.4704,-7.4664,-7.4661,-7.4658,-7.4655,-7.4786,-7.4794,-7.4801,0,0,0,0,0,0,0,0,0,0,0,0,0,-7.4404,-7.4282,-7.4567,-7.4566,-7.4568,-7.47,-7.4703,-7.4705,-7.4665,-7.4661,-7.4657,-7.4653,-7.4784,-7.4793,-7.4802,-7.4942,0,0,-7.483,-7.4834,0,0,0,0,0,0,0,0,-7.4397,-7.4415,-7.4565,-7.4567,-7.4568,-7.4662,-7.4648,-7.4784,-7.4666,-7.4628,-7.4656,-7.4651,-7.4749,-7.4761,-7.4795,-7.4948,-7.4954,-7.4831,-7.4836,-7.484,-7.4843,0,0,0,0,0,0,0,-7.4388,-7.4409,-7.462,-7.4567,-7.4569,-7.4559,-7.4573,-7.4674,-7.471,-7.4631,-7.4628,-7.4645,-7.4749,-7.4786,-7.4798,-7.4956,-7.4831,-7.4839,-7.4844,-7.4848,-7.5232,-7.5236,0,0,0,0,0,0,-7.4378,-7.4402,-7.4616,-7.4624,-7.4471,-7.4567,-7.4583,-7.4636,-7.4709,-7.4716,-7.4649,-7.4643,-7.4773,-7.4787,-7.4802,-7.4972,-7.484,-7.4849,-7.4854,-7.5227,-7.5233,-7.5238,0,0,0,0,0,0,-7.4372,-7.4398,-7.461,-7.4512,-7.4539,-7.4577,-7.4637,-7.4641,-7.4678,-7.4722,-7.4728,-7.468,-7.477,-7.4789,-7.4908,-7.4976,-7.4853,-7.4861,-7.5222,-7.5229,-7.5235,-7.5312,0,0,0,0,0,0,-7.4364,-7.4396,-7.445,-7.4514,-7.4544,-7.4715,-7.4641,-7.4646,-7.4694,-7.4688,-7.4753,-7.476,-7.4768,-7.4895,-7.4917,-7.4987,-7.4868,-7.5216,-7.5225,-7.5233,-7.5304,-7.5321,-7.5336,0,0,0,0,0,-7.4354,-7.4465,-7.4453,-7.4479,-7.4612,-7.4719,-7.4736,-7.4744,-7.47,-7.4754,-7.4783,-7.4758,-7.4965,-7.4907,-7.4932,-7.5005,-7.5211,-7.5222,-7.5233,-7.5297,-7.5318,-7.5336,0,0,0,0,0,0,-7.4405,-7.4473,-7.446,-7.4596,-7.4652,-7.4712,-7.478,-7.4766,-7.4835,-7.4826,-7.4833,-7.4848,-7.497,-7.4999,-7.4933,-7.5146,-7.5082,-7.5098,-7.5122,-7.5142,-7.5158,-7.5148,-7.4876,0,0,0,0,0,-7.4433,-7.4515,-7.4569,-7.4683,-7.4712,-7.4742,-7.4788,-7.479,-7.4848,-7.4871,-7.4909,-7.4965,-7.5043,-7.5094,-7.5168,-7.5308,-7.5322,-7.5371,-7.5387,-7.54,-7.5414,-7.5491,-7.5514,-7.5273,-7.5273,-7.5272,0,0,-7.449,-7.4537,-7.4588,-7.4695,-7.4738,-7.4823,-7.4762,-7.4853,-7.4915,-7.4885,-7.5,-7.503,-7.5093,-7.5223,-7.5283,-7.5252,-7.5484,-7.5413,-7.5423,-7.543,-7.5505,-7.5527,-7.5548,-7.528,-7.5279,-7.5277,0,0,-7.4637,-7.468,-7.4781,-7.4827,-7.4895,-7.4915,-7.4939,-7.5002,-7.5021,-7.5137,-7.5117,-7.5191,-7.5325,-7.5371,-7.5412,-7.558,-7.556,-7.5604,-7.5687,-7.5763,-7.5782,-7.5799,-7.586,-7.5881,-7.5617,-7.5618,-7.5618,0,-7.4698,-7.4825,-7.4834,-7.4928,-7.4976,-7.4955,-7.5057,-7.5101,-7.5189,-7.5222,-7.5187,-7.5356,-7.5397,-7.5539,-7.5581,-7.5614,-7.5642,-7.5596,-7.5779,-7.5796,-7.5812,-7.587,-7.5893,-7.5623,-7.5622,-7.5622,-7.5621,0,-7.4898,-7.4987,-7.506,-7.5148,-7.5204,-7.5302,-7.5325,-7.5381,-7.5379,-7.5402,-7.5521,-7.557,-7.5655,-7.5688,-7.5686,-7.5831,-7.581,-7.5777,-7.5713,-7.584,-7.5894,-7.5917,-7.563,-7.5628,-7.5626,-7.5625,0,0,-7.5079,-7.5174,-7.5201,-7.5241,-7.5316,-7.5384,-7.5481,-7.5566,-7.5614,-7.5676,-7.5758,-7.5873,-7.5844,-7.5891,-7.5894,-7.596,-7.6092,-7.5919,-7.5921,-7.595,-7.6255,-7.628,-7.6306,-7.6079,-7.6083,-7.6086,-7.625,0,-7.5233,-7.5405,-7.5417,-7.5572,-7.5655,-7.5637,-7.5722,-7.5777,-7.5801,-7.5874,-7.5901,-7.5983,-7.5938,-7.5966,-7.6031,-7.6062,-7.6153,-7.605,-7.6154,-7.6158,-7.614,-7.6334,-7.636,-7.6512,-7.6272,-7.6275,-7.6278,0,-7.5435,-7.5506,-7.567,-7.5736,-7.5771,-7.5847,-7.5926,-7.5997,-7.6059,-7.6072,-7.6126,-7.6121,-7.622,-7.6153,-7.629,-7.622,-7.6264,-7.6285,-7.6291,-7.6301,-7.6226,-7.635,-7.6561,-7.6584,-7.6311,-7.6309,-7.6306,0,-7.5553,-7.5689,-7.5805,-7.584,-7.5919,-7.5973,-7.6009,-7.6067,-7.6118,-7.6187,-7.622,-7.63,-7.6343,-7.6405,-7.6421,-7.637,-7.6558,-7.6492,-7.6572,-7.6572,-7.6612,-7.6609,-7.6834,-7.664,-7.6639,-7.6639,-7.6638,0,-7.5723,-7.5824,-7.5859,-7.5931,-7.6044,-7.6057,-7.6168,-7.62,-7.6253,-7.633,-7.6319,-7.6391,-7.6408,-7.6484,-7.6497,-7.6609,-7.6628,-7.6642,-7.6644,-7.6643,-7.6642,-7.6672,-7.6662,-7.6645,-7.6644,-7.6642,-7.6641,0,-7.5873,-7.59,-7.6026,-7.6092,-7.6111,-7.6191,-7.6247,-7.6316,-7.634,-7.6438,-7.6461,-7.6499,-7.6588,-7.661,-7.6715,-7.6724,-7.6858,-7.6849,-7.6837,-7.6837,-7.6916,-7.6909,-7.7168,-7.7203,-7.6985,-7.6988,-7.6989,0,-7.598,-7.6058,-7.6133,-7.6185,-7.6223,-7.6306,-7.6359,-7.6375,-7.643,-7.6509,-7.6568,-7.6656,-7.6728,-7.687,-7.6906,-7.6987,-7.6981,-7.7067,-7.6993,-7.6991,-7.6984,-7.6979,-7.6988,-7.7081,-7.7083,-7.7085,-7.7086,0,-7.6168,-7.6178,-7.6255,-7.6339,-7.6403,-7.6468,-7.6531,-7.6573,-7.6598,-7.6661,-7.6753,-7.6809,-7.6918,-7.7005,-7.7088,-7.7123,-7.711,-7.7109,-7.7132,-7.7132,-7.7122,-7.713,-7.6876,-7.7103,-7.7101,-7.71,-7.7099,-7.7099,-7.63,-7.637,-7.6434,-7.6521,-7.657,-7.663,-7.6698,-7.6732,-7.681,-7.6901,-7.6906,-7.7006,-7.7068,-7.7177,-7.7217,-7.7296,-7.727,-7.7303,-7.7311,-7.7319,-7.7327,-7.711,-7.731,-7.731,-7.731,-7.7309,-7.7309,0,-7.6488,-7.653,-7.661,-7.6699,-7.6768,-7.6751,-7.682,-7.6878,-7.6967,-7.7027,-7.7098,-7.7205,-7.729,-7.7334,-7.7419,-7.7473,-7.747,-7.7495,-7.7491,-7.75,-7.7344,-7.7317,-7.7497,-7.7497,-7.7497,-7.7497,-7.7497,-7.7497,-7.6594,-7.6711,-7.673,-7.6871,-7.6911,-7.7011,-7.7052,-7.7107,-7.7155,-7.7275,-7.7347,-7.7376,-7.743,-7.7519,-7.7597,-7.7607,-7.7639,-7.7669,-7.7676,-7.753,-7.7511,-7.7492,-7.7466,-7.7676,-7.7676,-7.7826,-7.7827,-7.7828]}]]